Zurück zum Katalog

SL-12 R/B(2)

AktivGEO
NORAD 15630·ROCKET BODY·🇷🇺 Russia

Gestartet Mar 22, 1985 von Baikonur Cosmodrome

Loading…

TLE

AktuellSource: Space-Track

Epoche: Sep 14, 2026, 03:49 UTC

1 15630U 85024D   26257.15903046 -.00000151  00000-0  00000-0 0  9992
2 15630   7.9919 308.2170 0014748 258.1168 262.5219  1.01233916153370

Verfolge SL-12 R/B(2) in Echtzeit mit AllMySat

Download on the App Store